Wind_Speed
34 33 32 33 32 32 33 32 32 32 32 32 31 31 30 30 31 31 29 27 27 27 27 24 22 21 22 23 24 24 24 23 22 20 19 18 16 14 13 14 13 12 11 10 8 6 6 7 5 5 5 5 6 7 8 9 10 12 13 15 16 18 20 20 20 19 19 18 17 16 16 16 16 16 16 16 16 17 17 17 18 19 19 20 21
32 31 31 32 32 32 32 32 32 32 31 31 31 31 31 31 31 32 30 28 29 28 27 25 22 22 22 24 24 24 25 24 23 22 21 19 17 14 14 14 13 12 12 11 9 8 8 8 6 6 7 7 8 8 9 10 11 13 15 17 18 20 21 21 21 20 19 18 17 16 16 16 16 16 16 16 17 17 18 19 19 20 20 21 22
32 30 30 30 31 32 32 32 32 31 31 31 31 32 32 32 33 33 31 30 30 29 27 26 23 22 22 23 25 25 25 25 24 23 22 20 18 16 15 14 13 14 13 12 10 9 8 7 7 8 8 8 9 9 10 11 13 14 17 19 20 21 21 21 21 21 19 18 17 16 16 16 16 16 16 17 17 18 19 19 20 20 21 21 22
33 31 30 30 31 32 32 31 31 30 30 31 31 32 33 34 34 34 32 32 32 30 29 27 25 24 23 23 25 25 26 26 25 24 23 21 19 18 16 15 15 15 15 14 12 10 9 9 9 9 9 9 10 10 11 12 14 16 18 20 21 22 21 21 21 20 19 18 17 17 16 16 16 16 17 17 18 18 19 20 20 21 21 22 22
34 33 31 30 31 32 32 31 30 28 28 30 31 32 33 34 35 35 34 34 33 32 31 29 28 27 24 23 25 26 26 26 25 24 24 22 21 20 18 16 16 16 16 15 13 11 10 11 11 10 10 10 10 11 11 12 14 16 18 20 21 21 21 21 21 20 19 18 18 17 16 16 16 16 17 17 18 19 20 20 21 21 22 22 23
35 34 32 32 32 32 32 31 29 27 26 28 30 31 32 34 36 36 35 35 35 34 31 30 30 29 25 25 25 27 27 27 26 25 25 24 23 21 19 18 17 17 16 15 13 12 12 12 11 11 12 11 11 11 12 13 15 17 18 19 20 21 21 20 20 19 19 19 18 17 16 16 16 16 17 17 18 19 20 21 21 22 22 22 23
36 34 33 33 33 33 32 31 28 26 25 26 28 29 30 33 35 37 37 37 37 35 33 32 31 29 27 26 26 27 28 28 27 27 26 25 24 22 20 19 18 17 16 15 14 13 13 12 12 12 13 13 13 13 14 15 17 18 18 19 20 20 20 20 20 20 20 19 18 17 16 17 16 17 17 18 19 19 20 21 21 22 22 23 23
37 35 35 34 34 34 32 31 28 24 24 24 26 28 29 31 35 37 37 37 37 36 35 35 32 31 29 28 28 29 29 29 29 29 27 26 25 23 22 21 19 17 16 15 15 15 14 12 12 14 15 15 15 15 16 17 19 19 19 20 20 19 19 20 21 21 21 20 19 17 16 17 17 18 18 19 19 20 21 21 22 22 23 23 24
38 36 35 35 35 34 33 30 27 24 23 24 25 27 28 30 34 36 37 37 37 37 36 36 35 33 31 30 30 31 31 31 30 29 28 28 26 24 23 22 20 18 17 17 17 15 14 13 14 15 15 16 16 16 17 19 20 19 20 20 20 20 20 21 21 21 21 20 19 17 17 18 18 18 18 19 19 20 21 22 22 23 23 24 25
39 38 36 37 36 34 33 30 27 23 23 24 24 26 27 29 32 34 35 36 36 37 36 36 36 33 31 30 30 30 30 30 30 30 30 29 28 25 23 22 20 19 19 19 18 16 15 15 16 16 15 16 16 17 18 19 20 20 21 21 20 21 21 21 21 21 21 20 19 17 17 18 18 18 18 19 20 21 22 22 23 23 24 25 26
40 39 37 38 38 35 33 30 26 24 24 26 26 26 27 28 31 33 34 35 34 34 34 35 34 32 30 30 30 29 29 30 30 30 31 30 28 26 23 23 22 21 20 20 18 17 16 17 17 16 15 16 16 17 18 19 20 21 22 21 21 22 21 21 20 20 21 21 19 18 18 18 19 18 19 20 20 21 22 23 24 24 25 26 27
41 40 39 39 39 35 33 30 26 24 25 26 26 25 25 26 28 31 33 34 35 34 34 34 33 31 31 31 31 32 33 32 30 30 30 29 28 26 24 23 23 22 21 20 19 18 18 18 17 16 16 16 16 17 19 19 20 22 23 22 22 23 22 20 19 20 22 21 20 18 18 19 19 19 19 20 21 22 23 24 25 25 26 27 28
42 40 41 40 38 35 33 31 27 25 25 25 25 24 24 24 26 29 31 33 34 35 35 35 34 34 33 34 35 35 34 32 31 32 31 30 29 27 24 24 24 23 22 21 20 19 19 19 18 17 16 16 17 18 19 19 21 24 24 24 24 24 24 21 19 20 22 21 19 19 19 19 19 20 20 20 21 22 23 24 25 26 27 28 28
42 40 41 40 37 36 34 31 27 25 26 27 27 26 25 25 26 28 31 32 33 33 34 36 36 36 34 34 34 34 33 33 33 33 33 32 31 28 25 26 25 24 23 22 21 21 21 20 19 18 18 17 18 19 20 20 22 25 25 26 26 25 25 22 19 20 21 21 19 19 19 19 20 20 20 21 22 23 24 25 26 26 27 28 29
41 41 41 40 37 38 36 32 29 28 28 29 29 29 28 27 27 28 30 32 33 32 33 35 36 35 33 33 32 32 33 33 33 33 33 32 30 28 27 27 26 25 24 23 22 22 22 21 19 19 19 19 19 20 21 21 23 26 26 27 27 26 25 23 20 20 21 20 19 19 19 19 20 21 21 22 23 24 25 26 26 27 28 28 29
42 42 41 40 39 40 38 35 33 31 30 30 30 30 28 28 27 27 29 31 32 33 33 35 35 34 34 35 35 34 34 34 34 34 34 32 30 28 28 28 27 26 25 24 23 23 23 21 20 20 20 20 21 22 22 21 24 26 26 27 27 26 26 24 21 20 20 19 19 19 20 20 20 21 22 23 24 25 26 27 27 28 28 29 29
41 42 41 40 39 40 40 38 37 34 33 33 33 32 30 29 28 27 26 28 30 31 33 35 34 35 36 37 37 36 34 34 35 35 34 32 29 29 30 29 28 27 25 25 25 24 23 22 22 22 22 22 22 23 23 22 25 27 27 28 27 26 26 25 23 19 18 19 19 20 20 20 20 22 23 23 24 26 26 27 28 28 29 29 29
44 45 43 40 37 38 40 41 40 38 36 34 36 38 35 32 30 28 27 27 29 31 33 32 33 36 38 39 39 36 32 32 34 34 34 33 31 31 31 30 29 27 26 26 26 25 24 23 23 23 24 24 24 23 23 24 26 27 28 28 27 26 26 26 24 20 17 19 20 20 20 20 21 22 23 24 25 26 27 28 28 29 30 30 30
46 47 45 41 38 38 40 41 42 41 39 37 38 39 37 32 29 29 29 29 30 31 32 31 32 36 38 39 40 38 35 34 33 31 31 32 31 32 32 31 29 28 27 27 27 26 25 24 24 25 25 25 25 24 24 25 26 27 28 28 27 26 26 26 24 20 18 19 20 20 20 20 21 22 24 25 26 27 28 29 29 30 30 30 29
46 46 45 42 39 40 42 42 42 42 42 41 40 38 36 33 32 33 33 32 31 31 31 31 32 34 36 38 39 38 38 37 34 31 30 30 31 32 32 31 30 29 29 28 27 27 26 25 26 26 27 27 25 24 25 26 27 27 27 28 28 26 25 25 23 20 19 19 19 21 21 21 22 23 25 26 27 28 29 29 30 30 30 30 29
45 46 46 43 42 42 42 41 41 40 40 40 40 40 39 38 37 35 34 32 31 31 33 32 32 32 34 36 37 38 38 39 38 35 33 32 33 33 32 31 30 29 29 28 28 27 26 26 27 27 28 27 25 25 26 27 27 27 27 28 27 26 25 24 22 20 19 19 20 21 21 22 23 24 26 27 28 29 29 30 30 30 30 30 30
46 46 46 43 42 43 40 40 39 37 37 37 38 39 39 38 38 36 33 32 32 33 33 32 31 32 34 35 36 37 37 37 37 36 34 34 33 32 31 30 30 29 29 29 28 28 27 28 28 28 28 27 26 26 27 27 27 27 27 27 27 26 26 24 21 20 20 20 20 21 22 23 24 25 27 28 28 29 30 31 31 31 31 31 30
41 41 41 37 36 38 37 36 35 36 37 38 38 39 38 37 38 38 37 34 33 33 33 32 32 33 34 35 35 35 34 33 31 30 30 31 31 30 29 29 29 29 29 30 30 30 29 29 28 28 28 27 27 27 27 27 27 27 26 26 26 26 25 23 21 20 20 21 21 21 22 23 24 26 27 28 29 29 30 31 32 32 31 30 30
31 34 35 32 30 31 33 33 34 35 36 37 37 36 37 38 38 39 38 35 33 34 34 33 33 34 34 34 35 35 34 32 30 28 27 28 29 30 29 29 30 30 30 31 31 30 29 29 28 28 27 28 28 28 28 28 27 26 26 26 26 26 24 22 21 21 22 22 22 22 23 24 25 26 28 28 29 30 31 31 31 31 31 30 31
32 35 34 31 29 29 30 31 33 35 36 38 38 37 37 38 39 40 38 34 33 34 34 33 33 34 34 34 36 36 35 33 32 31 31 32 32 33 34 34 33 33 32 32 32 31 30 29 28 27 28 29 30 29 28 28 27 26 26 27 26 25 23 22 21 21 22 22 23 24 25 25 26 27 27 29 30 30 31 31 31 31 31 31 31
22 22 21 22 23 25 26 28 29 31 33 36 39 40 39 38 38 39 36 32 31 32 33 34 34 35 35 36 37 36 35 34 34 34 35 36 37 38 38 38 37 36 35 34 33 32 30 28 27 27 29 30 30 30 28 27 27 26 26 26 25 23 22 22 22 22 22 22 24 25 25 26 27 27 28 29 30 30 30 30 31 31 31 30 30
22 19 20 24 28 29 30 29 29 30 31 32 34 38 41 42 41 40 37 34 34 33 33 34 35 36 37 36 37 37 36 35 36 36 37 38 39 40 40 39 37 35 33 32 32 31 30 28 28 28 29 30 30 29 28 26 26 27 27 26 24 22 22 21 22 22 22 23 24 24 25 26 27 28 29 29 30 30 30 30 30 29 29 29 29
32 29 26 28 32 34 34 33 32 33 35 35 34 36 38 42 46 49 46 42 39 37 35 36 37 38 39 38 37 38 38 37 37 38 38 39 40 40 38 36 34 33 31 31 30 30 30 29 29 29 29 30 30 28 26 25 26 27 26 25 23 22 21 21 21 22 22 23 23 24 25 25 27 28 29 29 29 29 29 28 27 27 28 28 29
38 38 35 34 35 37 39 39 38 37 39 38 38 37 37 38 44 51 52 47 43 40 38 39 39 39 41 41 39 39 39 38 38 38 38 39 39 37 35 33 33 32 31 30 30 30 31 30 30 29 29 29 28 26 25 25 26 27 25 24 22 21 20 20 21 21 22 22 23 23 24 26 27 28 28 28 27 27 26 26 26 26 27 27 28
39 41 42 41 40 40 42 42 41 40 40 41 40 39 39 40 43 49 50 47 46 44 41 40 40 40 42 42 40 39 38 37 37 37 37 38 37 35 33 32 33 33 31 30 30 31 32 32 30 29 28 28 26 25 25 25 26 26 24 22 21 20 20 20 21 21 21 21 22 23 24 26 26 26 26 25 24 24 24 25 26 26 27 27 28
39 41 43 44 45 45 46 44 43 41 41 43 44 42 41 42 45 49 49 46 45 44 42 43 43 43 43 43 40 37 35 35 36 37 38 37 36 35 34 34 34 32 31 31 31 32 33 31 29 28 27 26 27 25 24 24 24 24 22 20 19 19 20 20 20 20 20 21 22 23 24 24 24 23 23 22 22 23 24 25 26 26 27 28 30
39 41 42 44 45 47 49 48 45 43 42 44 47 45 43 43 45 48 49 48 48 45 43 45 48 48 46 44 40 36 34 35 36 38 37 36 36 36 36 37 36 33 32 33 33 33 32 31 28 28 27 27 27 26 23 22 23 23 20 18 18 19 19 19 19 20 20 21 21 22 22 21 21 20 20 21 22 23 24 25 26 28 29 30 31
40 42 43 44 44 46 49 52 52 48 45 45 47 47 46 45 46 48 49 50 51 49 47 47 51 54 51 46 43 40 40 39 40 40 39 38 39 41 42 40 37 36 36 35 34 32 31 29 28 27 27 27 28 26 23 22 23 22 19 18 18 19 19 18 19 19 20 20 20 19 18 18 18 19 19 20 22 24 25 26 27 29 30 32 33
41 43 44 45 45 45 47 52 56 55 51 48 48 50 49 48 48 48 49 50 50 50 50 50 52 56 55 51 48 48 47 46 45 44 41 42 46 48 48 46 40 38 37 35 34 31 29 29 28 28 27 28 27 25 22 22 22 20 18 18 19 18 17 18 18 19 19 18 17 16 16 17 17 17 18 20 22 24 26 27 29 31 32 33 35
41 44 45 46 47 47 47 49 54 57 56 53 52 52 53 54 53 50 50 51 51 51 52 52 52 56 56 54 53 53 50 50 52 50 46 45 48 50 51 50 44 38 36 35 33 30 28 29 28 27 27 27 26 24 22 21 20 18 18 18 18 17 17 17 17 17 16 15 15 14 15 15 16 17 18 21 23 25 27 28 30 32 34 35 35
43 44 46 48 49 50 50 50 53 56 57 57 56 54 54 56 56 54 54 55 55 53 53 53 52 54 56 54 55 55 52 50 52 53 53 51 50 52 53 49 44 38 35 33 31 29 29 29 28 28 27 26 25 23 21 20 19 18 18 18 17 16 16 16 16 15 14 13 13 13 14 14 16 17 19 21 24 26 28 29 31 33 34 35 36
45 46 48 50 51 52 52 52 53 55 57 58 57 55 55 55 55 58 59 60 59 57 56 55 53 54 56 56 57 58 57 55 51 50 54 56 53 54 54 48 41 36 34 33 30 30 30 29 28 28 27 26 23 21 20 19 18 18 17 17 16 15 15 15 15 14 12 12 12 12 13 15 17 18 20 22 24 27 29 30 32 33 34 35 36
45 47 49 51 52 52 52 53 53 55 57 58 59 58 58 57 57 58 60 61 60 59 58 57 57 57 59 59 59 60 61 62 55 48 51 56 55 56 55 48 40 36 35 34 32 31 30 29 30 29 27 25 23 21 19 19 18 17 16 15 15 14 14 14 14 12 11 11 11 12 14 16 17 19 21 24 25 28 30 30 32 34 35 36 37
42 45 48 51 53 53 53 53 54 55 57 58 61 63 61 59 59 58 59 60 60 59 58 57 58 60 63 63 62 62 63 64 59 51 50 54 55 55 53 46 39 37 37 36 34 33 30 29 30 28 25 24 23 21 20 19 17 16 15 14 13 14 15 14 13 12 11 11 11 13 15 17 19 21 23 24 26 28 29 31 33 35 36 36 37
46 45 47 49 52 54 55 54 54 55 57 58 61 63 61 59 60 59 59 60 58 58 57 57 58 61 64 66 64 62 63 62 57 53 52 51 51 52 52 46 40 39 39 37 35 32 30 29 29 27 25 24 23 21 19 17 16 15 14 13 13 14 14 13 12 12 12 11 12 14 16 18 21 22 23 25 26 28 30 33 35 35 36 36 37
51 48 48 50 53 56 56 57 56 56 58 60 61 63 62 60 60 60 61 61 59 58 58 58 59 60 64 67 65 63 60 55 52 51 49 47 47 48 48 45 42 41 39 37 34 31 29 29 28 26 25 24 23 20 17 16 16 15 14 14 14 14 13 12 12 12 12 12 14 15 18 20 22 22 23 24 27 30 32 34 35 36 37 37 37
51 49 48 51 55 57 57 58 58 59 60 62 62 63 65 63 60 61 64 63 61 60 59 59 60 60 63 66 66 63 58 51 49 49 44 40 40 42 43 43 42 42 39 35 32 29 28 28 27 25 25 23 21 19 18 18 16 14 14 15 15 13 13 12 12 13 13 15 16 17 19 20 21 22 23 26 29 32 33 34 36 37 37 37 37
47 47 48 51 55 58 58 58 59 61 62 63 63 62 63 62 59 60 63 63 62 63 61 60 61 61 63 66 64 61 58 53 50 47 41 37 37 39 42 44 44 42 38 33 29 28 28 28 27 26 25 23 22 21 20 18 15 14 16 16 15 13 13 13 12 13 15 16 17 18 18 19 21 23 26 29 31 33 34 36 37 37 37 37 38
45 45 46 49 53 58 59 59 59 61 62 63 63 61 61 62 61 61 63 63 63 66 64 60 61 62 63 66 65 62 58 54 49 45 40 37 38 39 41 43 44 41 35 31 29 29 29 28 27 26 25 24 23 22 19 16 15 16 17 16 14 14 13 13 13 15 16 17 17 17 17 19 23 26 29 31 32 34 35 37 37 37 38 38 39
46 46 46 48 52 56 59 59 59 60 62 63 63 61 60 60 59 59 62 64 64 64 63 61 63 65 66 68 68 66 62 55 48 44 42 39 39 41 42 42 40 37 32 30 30 30 30 30 29 28 26 24 23 21 18 17 17 16 17 16 15 14 13 13 14 16 17 17 17 17 18 22 26 29 31 33 34 35 37 37 37 37 39 39 39
47 48 48 48 51 54 57 58 58 58 59 59 60 60 58 55 51 49 53 62 66 65 63 62 63 63 65 67 68 67 67 60 49 42 42 42 40 40 42 41 37 33 31 30 30 31 31 31 30 30 28 25 24 22 20 18 17 18 18 17 16 14 14 14 15 16 17 17 18 18 20 24 28 30 32 33 35 37 37 36 36 38 39 39 39
48 50 50 49 50 53 55 56 55 56 55 54 55 58 57 52 48 41 41 52 62 66 65 63 63 64 64 65 65 66 68 67 59 48 41 41 40 40 42 41 35 32 31 30 30 31 30 30 29 28 28 27 26 23 19 18 19 20 20 17 16 15 15 15 16 16 17 17 18 20 23 26 29 31 32 34 35 37 36 35 37 39 39 39 38
47 50 51 49 48 51 53 53 51 52 52 48 50 56 58 56 49 40 36 40 47 59 66 64 64 68 68 65 63 63 62 64 66 60 47 40 40 40 40 38 33 32 32 30 30 31 31 31 30 28 28 27 24 22 20 20 21 21 19 17 16 16 16 16 16 16 17 18 19 22 25 27 30 31 32 34 35 36 35 35 37 39 39 38 36
44 46 46 45 45 49 51 50 48 49 48 44 46 53 59 61 55 42 36 35 36 46 57 59 57 60 62 60 57 58 56 57 61 61 50 41 39 36 35 35 33 33 32 30 30 32 33 33 32 31 29 26 24 23 22 22 22 21 19 17 16 17 17 16 16 16 17 19 22 25 27 28 30 32 33 34 35 35 34 35 37 38 37 37 35
39 38 39 39 42 45 47 45 45 46 45 41 43 50 56 62 62 47 34 34 35 38 45 51 52 53 56 56 56 57 56 52 51 52 47 40 36 33 33 34 33 31 29 29 30 32 33 34 33 31 28 25 24 24 23 23 23 22 20 18 17 17 17 17 17 18 19 22 25 28 28 28 31 32 33 34 34 33 34 35 36 37 37 36 33
32 31 32 35 38 40 41 41 42 45 43 38 40 47 51 58 65 54 35 32 36 36 39 45 49 51 53 54 54 53 52 47 46 47 43 37 33 33 33 32 30 28 27 28 30 31 32 32 31 29 26 24 25 24 24 24 24 22 20 18 17 17 18 18 18 19 21 24 27 28 28 29 31 33 33 35 34 32 33 34 36 36 36 35 31
Wind_Direction
223 225 225 220 219 220 220 219 218 217 216 216 216 214 212 211 212 213 212 211 211 214 218 219 213 207 207 208 209 209 208 208 207 207 210 210 210 210 212 217 217 222 228 224 214 208 224 233 236 255 272 287 295 310 324 329 335 337 336 338 336 331 331 332 331 331 331 330 329 326 322 321 320 319 319 319 319 319 320 321 321 321 321 320 319
223 223 222 221 221 221 221 221 220 219 218 218 217 215 212 210 212 214 213 212 214 215 218 223 218 212 210 209 210 210 209 211 210 210 213 213 213 212 215 221 221 224 230 227 216 208 225 239 244 260 274 283 294 308 317 323 331 332 332 335 333 330 331 331 332 331 331 331 328 324 321 323 321 320 320 319 319 320 321 321 321 321 320 319 317
221 221 220 221 222 222 222 222 222 221 221 220 219 217 213 210 211 214 212 212 216 216 218 224 223 218 214 211 212 211 210 212 212 213 215 215 215 215 218 223 225 227 228 224 219 215 225 241 248 258 269 280 295 305 311 320 325 328 330 332 332 330 330 331 331 330 329 329 324 321 322 322 320 319 319 319 320 321 320 319 319 320 319 318 315
220 221 220 221 221 221 223 224 224 223 222 221 220 218 213 209 209 212 211 211 216 217 216 220 224 223 215 212 214 213 212 212 213 214 216 218 218 219 221 224 226 227 226 224 223 223 227 237 246 255 266 278 291 300 307 316 320 325 329 332 333 331 329 328 329 329 328 326 322 322 322 319 318 317 318 319 319 319 317 318 319 319 317 315 313
220 220 220 220 220 221 223 225 226 223 221 220 219 218 215 211 209 210 210 210 214 218 218 216 219 224 218 213 215 215 215 214 214 216 217 219 220 221 223 225 228 228 228 227 227 228 231 237 246 255 264 274 284 293 302 310 317 324 329 333 333 329 326 325 327 328 327 323 321 322 320 317 316 316 317 318 317 317 317 318 319 317 316 314 315
219 219 219 219 219 220 222 224 226 223 221 219 218 217 214 212 210 210 210 211 213 215 219 219 218 222 221 217 216 215 217 216 216 217 219 220 222 224 225 228 230 232 232 231 230 231 235 241 251 260 267 275 278 286 297 306 315 323 329 332 330 326 323 323 325 326 324 321 321 320 318 315 315 316 316 316 316 317 318 318 318 316 316 315 316
219 218 218 218 218 218 220 222 222 222 221 218 216 215 213 211 210 210 210 212 213 212 213 218 220 222 223 220 217 216 216 215 216 218 221 222 224 226 228 231 233 234 234 234 234 235 240 247 257 266 271 275 280 290 299 308 316 322 327 329 327 324 322 323 324 322 321 321 320 318 317 314 315 315 315 316 317 318 318 318 317 316 316 317 319
218 218 218 217 217 217 218 219 219 220 221 220 217 215 213 211 210 211 212 212 214 213 211 215 219 221 224 220 216 217 217 215 215 217 222 224 225 227 229 232 235 237 237 235 236 238 243 250 259 265 271 278 286 296 303 311 317 321 323 325 325 322 320 322 320 319 319 319 318 317 315 314 314 315 315 316 317 319 319 318 317 317 317 318 320
217 216 217 216 216 216 215 216 218 219 221 221 219 215 213 212 211 211 212 213 213 215 214 215 217 218 221 221 216 216 217 217 216 218 221 224 226 227 228 233 237 238 237 235 236 240 245 250 256 264 272 281 290 298 305 311 315 318 320 322 322 318 318 319 317 317 317 317 316 315 314 312 313 314 314 316 318 320 319 318 317 317 318 319 320
216 215 215 215 215 213 213 214 216 219 220 220 218 215 212 211 211 210 212 214 214 216 216 216 218 217 217 220 218 216 217 217 216 218 222 224 225 226 228 231 234 235 235 234 235 239 244 249 255 264 273 282 290 298 305 310 313 315 316 318 318 315 315 316 316 315 315 315 315 313 312 311 312 313 315 318 320 321 319 318 318 318 319 320 320
214 214 214 213 212 210 211 212 215 218 218 217 216 215 213 212 211 209 210 214 216 218 220 221 221 219 216 218 215 212 217 221 219 220 223 224 223 223 228 231 231 233 234 234 235 238 243 249 256 263 273 281 289 297 304 308 310 312 313 315 314 312 312 313 314 313 312 314 314 311 311 310 311 314 317 320 321 321 320 319 318 319 320 320 320
213 213 213 212 210 209 209 210 214 218 218 216 216 217 217 216 215 213 212 213 215 216 219 224 225 223 219 217 213 210 215 221 222 222 224 225 224 223 226 230 232 234 235 235 235 238 244 250 257 264 271 279 287 295 301 303 306 308 310 312 311 309 308 310 312 310 309 311 312 310 309 310 313 316 319 321 322 321 319 319 320 320 320 319 318
212 212 212 211 210 209 209 210 213 218 220 218 219 220 220 220 219 217 216 217 218 217 217 220 223 225 223 216 211 213 218 220 219 221 224 226 228 228 227 230 233 234 235 235 236 240 245 251 257 263 271 278 286 292 296 299 303 306 308 309 309 307 307 309 311 308 307 308 309 309 310 312 314 317 320 321 321 320 318 319 320 319 318 317 316
212 212 212 211 210 210 209 210 214 218 218 218 219 220 220 221 221 220 218 219 221 223 223 222 222 224 223 218 213 214 220 221 220 223 227 228 230 231 230 231 232 233 234 234 236 240 246 251 257 263 270 277 283 289 291 295 300 303 306 307 307 306 306 310 312 307 305 305 307 309 310 313 316 318 321 322 320 318 319 319 319 318 316 315 314
210 211 211 210 211 211 210 210 213 218 219 219 221 221 220 221 223 223 222 221 221 223 226 228 230 226 222 222 221 220 223 226 226 227 229 231 232 233 233 233 233 234 234 235 237 241 246 252 258 263 269 275 280 285 287 292 298 300 303 305 305 305 306 310 313 308 303 304 307 309 311 315 317 319 321 321 319 318 319 318 317 316 315 314 314
209 209 209 210 212 213 213 213 213 217 221 224 226 227 227 225 226 227 226 226 225 226 226 228 231 229 226 225 225 225 226 226 228 230 231 232 234 234 235 235 235 236 236 237 238 242 247 252 257 263 268 273 277 281 284 289 294 296 300 304 305 305 306 310 313 307 303 305 308 310 312 316 318 319 320 319 318 318 318 317 316 315 314 314 315
209 209 207 208 213 214 215 216 217 218 221 227 230 232 234 234 233 233 233 232 231 231 232 232 231 231 231 230 229 229 227 225 228 231 233 235 235 235 236 237 236 237 238 239 240 243 247 251 256 262 267 271 273 277 281 285 289 293 299 303 304 304 306 310 310 305 303 305 308 310 313 317 318 318 318 318 317 316 316 315 315 315 314 315 316
212 212 209 209 213 217 217 219 220 221 222 228 231 230 232 235 239 240 240 238 234 233 234 236 236 233 232 233 234 234 233 233 233 232 233 234 233 233 235 236 236 238 239 239 241 243 247 251 256 261 265 268 269 273 279 283 287 291 296 300 302 303 306 310 308 304 304 306 307 309 313 317 318 317 316 316 316 315 315 315 315 315 315 316 317
214 216 215 213 216 219 221 222 224 224 223 226 229 229 229 230 238 244 245 243 239 236 235 235 236 235 234 233 234 233 230 230 232 233 234 234 233 232 234 235 236 237 238 239 241 244 247 251 256 261 264 265 266 271 277 282 285 289 293 297 299 302 306 308 305 302 303 305 306 309 314 317 317 316 315 314 315 315 315 316 315 316 316 316 316
215 219 220 218 218 222 223 225 228 227 225 226 224 224 227 230 238 243 243 243 243 241 239 236 235 235 235 235 235 233 229 226 226 227 229 230 229 230 233 236 237 237 238 240 242 245 248 252 256 260 261 263 266 272 277 280 284 288 292 296 299 302 306 305 301 300 302 303 306 309 313 316 317 315 314 314 315 315 316 316 316 316 315 315 315
214 218 221 219 218 222 225 228 233 233 232 232 225 221 226 233 239 242 242 245 247 245 242 238 237 236 235 235 234 233 231 228 225 225 226 228 228 230 232 234 236 238 240 242 244 247 249 253 256 258 259 263 268 274 277 279 283 286 290 296 299 302 303 300 297 297 301 304 306 310 313 316 316 315 314 314 315 316 316 316 316 315 315 315 316
219 219 222 225 224 226 229 232 236 237 238 239 234 229 230 234 239 240 243 245 246 247 245 241 240 238 236 235 234 232 231 231 231 231 230 231 233 234 234 234 236 237 240 243 245 247 249 251 253 256 259 264 268 272 275 278 280 283 290 296 299 301 300 295 294 296 300 303 306 310 313 315 315 314 313 314 315 316 316 316 315 315 315 316 318
218 218 219 225 228 228 231 234 236 237 237 238 237 236 236 236 239 238 237 238 242 245 246 243 242 241 239 237 235 233 232 234 239 239 236 237 240 241 240 238 238 239 240 242 243 245 246 248 251 255 260 264 266 269 272 274 277 281 290 297 299 299 295 292 293 297 299 303 307 311 313 314 314 313 313 315 316 317 316 316 316 316 317 319 321
232 235 235 236 239 242 245 246 242 239 239 238 237 238 238 236 236 235 232 231 237 244 246 245 244 243 242 240 238 236 232 231 233 234 232 234 238 240 239 237 237 238 240 242 244 245 245 247 250 255 259 262 264 266 268 271 274 280 289 296 297 294 290 289 293 297 300 304 308 311 312 313 312 313 315 316 317 317 317 317 317 319 320 322 324
255 259 259 258 258 258 259 258 254 251 249 246 242 241 240 236 234 234 231 229 235 242 247 249 249 247 246 244 240 237 233 229 227 226 225 224 228 231 233 234 234 235 237 240 243 244 245 247 249 252 257 260 263 264 266 269 273 280 289 294 293 288 286 288 292 296 301 305 310 312 313 313 314 315 316 317 318 317 317 318 320 322 323 324 325
256 259 252 246 243 240 238 241 246 250 252 252 250 245 239 235 234 234 232 232 236 241 246 250 250 249 247 245 242 237 234 231 228 226 225 225 228 230 231 233 235 236 237 240 242 244 245 245 246 249 253 258 261 263 265 269 274 281 288 290 286 283 284 288 292 297 301 306 309 311 312 314 315 317 317 317 316 317 318 321 323 324 325 327 328
241 242 228 225 228 227 225 225 229 235 240 245 248 246 242 239 237 236 236 239 242 244 246 249 251 251 249 247 244 240 236 233 232 230 229 229 232 234 235 235 237 240 241 242 243 243 242 243 245 249 254 257 260 262 264 269 275 281 285 284 281 280 283 287 292 297 302 306 309 310 312 314 316 317 316 315 316 319 322 324 325 326 328 330 330
229 233 229 228 228 226 225 225 226 228 231 234 236 240 244 246 244 242 242 244 244 242 244 248 251 252 252 249 245 242 238 235 234 233 233 234 236 238 239 239 240 242 242 239 238 239 240 244 248 253 256 257 259 261 264 268 273 278 280 279 277 277 281 287 292 297 302 305 308 310 312 314 315 314 314 316 320 323 326 327 328 330 332 333 332
221 227 230 233 232 229 226 225 226 226 226 228 231 233 238 244 247 245 245 246 243 240 242 247 249 251 251 248 245 241 239 237 235 234 234 236 238 240 240 240 240 239 237 236 237 239 243 247 252 254 256 257 258 259 263 268 272 275 276 274 273 275 281 287 291 296 301 304 307 309 311 313 312 312 315 320 325 327 328 330 331 334 335 334 333
219 222 226 229 231 233 230 226 226 225 224 226 230 232 236 240 243 242 243 246 243 238 238 241 244 248 248 247 245 241 237 236 235 234 233 234 237 240 239 239 237 235 235 237 240 244 247 250 253 254 254 256 257 258 263 269 272 271 270 269 271 276 282 286 291 295 300 303 306 308 310 310 311 314 320 325 328 330 331 333 335 335 335 334 333
224 224 225 226 227 230 231 229 226 224 224 227 229 229 231 235 237 238 240 242 237 234 237 239 241 245 246 245 244 240 236 235 234 233 232 232 235 237 236 235 235 235 237 240 244 246 248 250 251 252 253 254 257 261 266 269 268 265 264 265 270 276 281 285 290 295 298 301 304 307 308 309 313 319 325 329 331 333 334 335 334 333 333 331 330
230 229 228 228 228 228 229 229 229 227 225 226 228 227 227 229 232 235 237 236 234 237 243 245 242 240 242 243 239 236 237 238 237 235 232 232 236 237 237 235 234 236 239 242 245 245 245 248 250 252 252 254 258 264 267 266 263 261 260 263 269 274 278 283 289 293 297 300 303 307 308 312 318 324 328 332 333 334 334 333 332 331 330 329 328
237 236 234 232 232 231 230 229 230 231 230 229 228 227 227 228 229 232 234 234 236 241 245 247 244 237 236 236 234 234 238 241 241 239 233 231 235 239 241 240 237 235 236 241 242 241 242 248 252 252 252 254 260 265 265 260 256 256 257 261 266 271 276 282 288 292 296 301 305 308 311 316 322 326 330 332 332 331 331 331 330 329 328 326 325
239 239 239 237 235 234 233 230 230 232 233 232 232 230 228 230 231 231 232 233 236 240 243 245 243 236 231 230 231 234 238 238 237 236 232 229 232 237 241 241 237 234 236 239 238 238 243 249 250 250 252 258 261 261 256 250 248 250 255 259 263 269 277 282 287 293 298 302 306 309 314 319 323 326 329 330 329 328 328 327 327 325 324 324 323
240 239 239 240 239 237 236 233 231 232 233 234 235 233 230 230 232 233 234 235 236 238 241 242 240 234 229 227 229 234 238 237 234 232 230 229 231 236 240 239 234 234 238 240 237 238 245 247 247 250 255 258 258 253 245 241 242 246 252 257 263 270 278 283 287 293 298 301 305 309 314 318 322 325 327 327 326 325 324 324 323 323 323 323 323
245 242 239 239 239 239 237 234 231 231 233 234 236 236 234 232 233 234 236 238 238 239 241 241 238 232 228 227 229 234 237 238 236 234 232 232 232 234 238 237 232 234 239 238 236 241 245 245 246 250 254 256 252 243 235 234 238 244 250 257 264 272 278 283 288 293 296 299 303 308 312 317 321 323 324 324 323 321 321 321 321 322 324 325 324
245 245 243 240 239 238 238 237 233 231 234 236 236 236 235 233 231 231 233 236 239 240 241 239 236 230 226 227 229 233 237 239 239 238 236 236 236 236 237 234 229 230 235 234 236 242 244 244 246 249 253 254 246 235 229 231 237 242 249 257 265 272 278 284 289 292 294 297 300 305 310 315 319 319 318 318 319 318 318 319 321 324 325 325 324
243 243 244 243 241 239 238 239 237 234 235 236 235 234 233 232 231 231 232 236 239 240 240 239 236 231 228 228 228 231 237 239 241 242 241 239 239 239 237 233 227 226 228 230 235 241 242 244 245 249 252 247 236 228 227 231 236 242 249 258 266 274 280 285 287 289 291 293 298 303 308 313 315 314 313 315 317 316 317 321 323 324 325 324 324
252 247 245 244 243 241 239 238 238 236 235 235 234 236 237 236 235 236 234 235 237 238 238 238 237 233 230 229 229 231 236 239 243 247 245 240 239 239 238 233 226 222 224 229 235 238 240 244 246 249 247 237 228 225 227 231 236 243 250 258 267 277 282 284 283 284 286 289 295 302 307 311 311 310 313 315 316 317 320 323 324 324 324 324 324
267 259 251 246 244 242 240 238 236 235 236 235 235 238 240 237 234 235 235 235 237 237 236 236 236 233 230 230 230 232 235 240 246 249 243 237 237 238 235 228 220 218 224 232 236 236 237 242 246 245 237 228 225 226 228 232 237 243 252 261 270 277 279 279 280 282 284 288 296 301 305 307 307 310 314 316 318 321 322 323 323 323 324 325 325
271 266 256 248 244 242 240 238 236 234 234 236 235 237 239 235 231 233 236 239 241 240 237 235 237 235 232 230 231 231 234 241 246 242 236 232 233 231 227 221 216 218 226 234 235 234 236 242 244 240 230 224 225 227 226 229 236 245 256 266 273 275 272 272 276 280 284 289 295 300 303 304 307 311 315 317 320 322 322 321 322 323 324 325 325
270 264 256 248 243 242 240 238 236 234 233 234 235 236 238 238 235 234 237 239 239 240 238 235 236 237 232 230 231 231 233 238 237 232 230 229 226 221 216 214 216 221 229 234 232 232 237 241 239 232 225 222 223 222 222 229 239 251 261 269 273 269 264 267 273 278 283 289 296 300 302 304 308 311 315 319 320 320 321 321 320 321 323 325 324
267 261 255 248 244 242 241 238 235 235 233 232 235 237 236 237 238 237 239 239 236 237 237 233 234 236 232 228 230 230 232 233 229 226 225 223 219 215 211 213 218 224 229 230 228 229 236 237 231 223 219 218 218 219 224 234 245 254 263 269 268 261 261 268 275 279 284 291 296 300 302 306 309 312 316 318 318 319 320 319 318 321 324 325 324
265 259 254 249 245 243 242 240 236 235 234 232 234 236 233 233 236 236 238 240 237 235 235 232 231 234 232 229 229 230 231 232 229 225 222 219 220 219 217 220 224 227 228 224 222 226 231 229 223 219 216 216 218 222 228 237 246 255 264 267 261 257 263 270 276 282 286 292 296 299 304 308 311 314 316 317 317 318 318 316 318 323 325 323 321
266 260 255 250 246 244 243 242 238 236 236 235 235 234 231 231 237 237 236 237 235 233 233 231 230 233 232 231 230 230 230 230 229 226 222 221 224 224 222 225 227 226 225 222 222 226 227 221 215 213 214 216 219 223 227 236 248 259 264 263 259 260 267 271 277 283 287 292 295 299 307 310 311 314 315 316 317 316 315 316 321 324 323 320 317
267 263 258 252 246 244 244 243 240 238 238 239 239 235 229 229 237 240 236 233 232 230 229 228 229 233 235 234 233 232 230 229 230 229 225 224 226 225 224 226 227 226 223 222 224 228 228 222 215 210 210 212 215 222 229 240 254 261 260 260 261 264 268 271 275 282 287 291 295 300 307 309 310 313 314 315 315 313 313 318 323 323 319 316 313
268 265 260 254 247 245 245 244 242 239 238 240 241 236 230 230 237 240 235 231 229 226 226 226 226 230 234 236 236 235 233 232 232 230 228 228 230 229 227 227 226 224 222 223 226 226 222 218 214 212 211 211 215 226 237 248 256 259 259 261 265 268 269 270 274 281 287 291 295 300 305 307 309 312 313 314 313 312 314 320 322 319 314 310 309
269 264 260 255 248 244 244 244 242 239 237 239 240 237 231 230 235 238 237 234 228 225 225 224 223 227 233 236 237 237 236 235 233 232 230 232 232 228 223 221 220 219 220 222 222 218 211 208 209 212 212 213 221 233 243 250 255 259 261 264 268 269 268 269 275 282 286 291 296 300 304 307 309 310 311 312 311 311 316 321 319 313 308 306 306
272 266 260 253 245 242 242 242 240 238 237 236 237 237 233 232 234 237 239 240 233 224 222 219 218 223 229 233 235 235 234 234 232 230 228 228 228 221 214 213 214 215 218 218 214 210 207 206 209 212 213 217 227 237 242 248 253 257 261 265 267 266 266 270 277 282 286 293 297 299 303 306 307 308 310 310 309 311 316 319 315 308 304 303 304
277 269 259 250 242 240 240 240 237 235 235 235 236 237 237 236 237 237 240 244 238 226 220 217 216 219 223 226 229 229 228 225 221 221 223 225 221 213 209 211 213 215 217 215 211 210 210 210 213 215 217 221 230 236 240 246 251 256 261 263 262 263 266 271 277 282 289 295 296 298 302 304 305 307 308 308 307 310 315 315 309 303 301 301 303
278 268 256 247 241 239 237 236 234 232 232 233 235 238 240 241 240 238 241 249 242 230 222 218 216 218 220 221 220 218 216 212 210 213 218 216 210 207 210 214 215 217 217 214 211 212 214 215 216 218 221 226 232 237 241 246 251 256 259 259 258 262 267 270 276 284 290 293 294 296 300 302 302 305 306 305 305 309 312 310 303 299 299 300 303
Height
3129 3131 3133 3135 3137 3138 3140 3142 3144 3146 3149 3151 3153 3155 3158 3159 3161 3162 3163 3165 3166 3166 3167 3169 3172 3175 3176 3177 3178 3179 3181 3182 3183 3184 3185 3186 3187 3189 3189 3189 3190 3191 3191 3192 3193 3193 3192 3192 3193 3192 3192 3193 3192 3192 3191 3191 3191 3190 3190 3189 3188 3187 3186 3185 3184 3183 3182 3181 3180 3179 3178 3177 3176 3175 3174 3173 3172 3171 3170 3170 3169 3167 3166 3165 3163
3126 3128 3130 3132 3134 3136 3138 3139 3141 3144 3146 3149 3151 3153 3155 3157 3158 3160 3162 3163 3164 3165 3166 3167 3170 3172 3174 3176 3177 3178 3179 3180 3182 3183 3183 3184 3186 3188 3188 3188 3189 3190 3190 3191 3192 3192 3191 3191 3191 3191 3191 3191 3191 3191 3191 3190 3190 3190 3189 3189 3187 3186 3185 3184 3183 3182 3181 3180 3179 3177 3176 3175 3174 3173 3173 3172 3171 3170 3169 3168 3167 3166 3164 3163 3162
3123 3126 3128 3129 3131 3133 3135 3137 3139 3141 3144 3146 3148 3150 3152 3155 3156 3157 3160 3161 3162 3164 3165 3165 3167 3170 3172 3174 3175 3176 3178 3179 3180 3181 3181 3183 3185 3186 3187 3187 3188 3189 3190 3190 3190 3191 3190 3190 3190 3190 3190 3190 3190 3190 3190 3189 3189 3189 3188 3187 3186 3185 3183 3182 3182 3181 3180 3179 3177 3176 3175 3174 3173 3172 3171 3170 3169 3169 3168 3167 3165 3164 3163 3162 3161
3120 3123 3125 3127 3128 3130 3132 3134 3136 3139 3142 3143 3145 3147 3149 3151 3153 3154 3157 3159 3160 3161 3163 3164 3165 3167 3170 3172 3173 3174 3176 3177 3178 3179 3180 3181 3183 3184 3185 3186 3187 3188 3188 3189 3189 3189 3189 3189 3189 3189 3189 3190 3189 3189 3189 3189 3188 3188 3187 3186 3185 3183 3182 3181 3180 3180 3179 3177 3176 3175 3174 3173 3172 3171 3170 3169 3168 3167 3166 3165 3164 3163 3161 3160 3160
3117 3120 3122 3124 3126 3127 3129 3130 3133 3136 3139 3140 3141 3143 3146 3148 3150 3151 3153 3156 3157 3158 3160 3162 3164 3164 3167 3169 3171 3172 3174 3175 3177 3178 3179 3180 3181 3182 3184 3185 3185 3186 3187 3187 3188 3188 3188 3189 3188 3188 3188 3189 3189 3188 3188 3188 3188 3187 3186 3185 3184 3182 3181 3180 3179 3178 3177 3176 3175 3174 3173 3172 3171 3169 3169 3168 3167 3166 3165 3164 3163 3161 3160 3159 3158
3114 3117 3119 3121 3123 3124 3126 3127 3130 3133 3135 3137 3138 3140 3143 3145 3147 3149 3151 3153 3154 3156 3157 3159 3161 3162 3164 3167 3169 3171 3172 3173 3175 3176 3177 3178 3179 3180 3182 3183 3184 3184 3185 3186 3187 3187 3187 3187 3187 3187 3187 3187 3188 3187 3187 3187 3187 3186 3186 3185 3183 3181 3179 3178 3178 3177 3176 3175 3174 3173 3172 3170 3169 3168 3167 3167 3166 3165 3163 3162 3161 3160 3159 3158 3157
3111 3114 3116 3118 3120 3122 3123 3125 3127 3130 3132 3134 3136 3137 3140 3142 3144 3146 3148 3150 3152 3154 3156 3156 3158 3160 3162 3165 3166 3168 3170 3172 3173 3174 3175 3176 3177 3178 3179 3180 3182 3182 3183 3184 3185 3185 3186 3186 3186 3185 3185 3185 3186 3186 3185 3185 3185 3185 3185 3184 3182 3180 3178 3177 3176 3175 3175 3174 3173 3172 3170 3169 3168 3167 3166 3165 3164 3163 3162 3161 3160 3159 3158 3157 3155
3108 3111 3113 3115 3117 3119 3121 3123 3125 3128 3130 3131 3133 3135 3137 3139 3141 3143 3145 3147 3149 3151 3154 3155 3156 3159 3160 3162 3164 3165 3167 3169 3171 3172 3173 3174 3175 3176 3177 3178 3180 3181 3181 3182 3183 3184 3184 3184 3184 3184 3183 3183 3183 3184 3183 3183 3183 3183 3183 3182 3181 3179 3178 3176 3174 3174 3173 3172 3171 3170 3169 3168 3167 3166 3165 3164 3163 3162 3161 3160 3159 3158 3157 3155 3154
3106 3108 3110 3112 3115 3117 3119 3121 3123 3126 3128 3129 3130 3132 3134 3136 3138 3140 3142 3145 3147 3149 3151 3152 3154 3156 3158 3160 3161 3163 3164 3166 3168 3170 3171 3172 3173 3174 3175 3177 3178 3179 3180 3181 3181 3182 3182 3183 3182 3182 3182 3182 3182 3182 3182 3181 3181 3181 3181 3180 3179 3178 3177 3175 3173 3172 3171 3171 3170 3169 3168 3167 3166 3165 3164 3163 3161 3160 3159 3158 3158 3156 3155 3154 3152
3103 3105 3107 3110 3112 3114 3116 3119 3121 3124 3125 3127 3128 3130 3132 3134 3136 3138 3139 3141 3144 3146 3148 3150 3152 3154 3156 3157 3158 3160 3162 3164 3166 3167 3169 3170 3171 3172 3174 3175 3176 3177 3178 3179 3179 3180 3181 3181 3181 3180 3180 3180 3180 3180 3180 3180 3180 3179 3179 3179 3178 3177 3176 3174 3172 3170 3170 3170 3169 3168 3167 3166 3165 3164 3163 3161 3160 3159 3158 3157 3156 3155 3153 3152 3150
3100 3102 3104 3107 3109 3111 3114 3116 3119 3121 3123 3124 3126 3127 3129 3131 3133 3135 3137 3139 3141 3143 3145 3147 3149 3151 3153 3154 3156 3158 3160 3161 3163 3165 3166 3167 3169 3170 3172 3173 3174 3175 3176 3177 3178 3179 3179 3179 3179 3179 3179 3179 3179 3179 3179 3178 3178 3177 3177 3177 3176 3175 3175 3173 3171 3169 3168 3168 3168 3167 3166 3165 3164 3163 3161 3160 3159 3158 3156 3155 3154 3152 3151 3149 3148
3097 3100 3102 3104 3106 3109 3111 3114 3116 3118 3120 3122 3124 3126 3128 3129 3131 3133 3135 3137 3138 3140 3142 3144 3146 3148 3150 3152 3154 3156 3158 3159 3161 3162 3163 3165 3166 3168 3169 3171 3172 3173 3173 3175 3176 3177 3177 3177 3177 3177 3177 3177 3177 3177 3177 3176 3176 3175 3174 3175 3174 3173 3173 3173 3171 3168 3166 3166 3166 3165 3164 3163 3162 3161 3160 3158 3157 3156 3155 3153 3152 3150 3149 3147 3145
3094 3097 3099 3101 3104 3107 3109 3111 3114 3116 3118 3120 3122 3124 3126 3127 3129 3131 3133 3135 3136 3138 3140 3141 3143 3145 3147 3149 3151 3153 3155 3156 3158 3159 3161 3162 3164 3165 3167 3169 3170 3170 3172 3173 3174 3174 3175 3175 3175 3175 3175 3175 3175 3175 3175 3175 3174 3173 3172 3172 3172 3171 3171 3171 3170 3167 3165 3165 3164 3164 3163 3162 3161 3159 3158 3157 3156 3154 3153 3152 3150 3148 3147 3145 3143
3092 3094 3096 3099 3101 3104 3106 3109 3112 3114 3116 3118 3120 3121 3123 3125 3126 3128 3130 3132 3134 3137 3138 3140 3141 3143 3145 3148 3149 3150 3152 3153 3155 3157 3158 3160 3161 3163 3165 3166 3167 3169 3170 3171 3171 3172 3173 3173 3173 3173 3173 3173 3173 3173 3173 3173 3172 3170 3170 3169 3169 3169 3168 3169 3169 3166 3164 3163 3163 3162 3161 3160 3159 3157 3156 3155 3154 3153 3151 3150 3148 3146 3145 3143 3141
3088 3091 3093 3096 3099 3101 3103 3106 3109 3111 3113 3115 3116 3118 3120 3122 3124 3126 3128 3130 3132 3134 3136 3138 3139 3140 3143 3145 3146 3148 3150 3151 3153 3154 3155 3157 3159 3161 3163 3164 3165 3166 3168 3168 3169 3170 3170 3170 3171 3171 3171 3171 3171 3171 3171 3171 3170 3168 3168 3167 3166 3166 3166 3166 3167 3165 3162 3161 3161 3160 3159 3158 3157 3155 3154 3153 3152 3151 3149 3147 3146 3144 3143 3141 3139
3085 3088 3090 3093 3096 3098 3101 3104 3106 3108 3110 3112 3114 3115 3118 3120 3122 3124 3126 3128 3130 3132 3133 3134 3135 3137 3139 3140 3143 3145 3147 3148 3150 3151 3153 3155 3157 3159 3160 3161 3163 3164 3165 3166 3167 3167 3168 3168 3168 3168 3168 3168 3168 3168 3168 3168 3167 3166 3166 3165 3164 3163 3163 3164 3164 3163 3161 3159 3159 3158 3157 3157 3155 3153 3152 3152 3150 3149 3147 3145 3144 3142 3141 3139 3137
3082 3085 3087 3090 3093 3096 3099 3102 3104 3106 3108 3110 3112 3114 3116 3118 3120 3122 3124 3127 3129 3130 3131 3131 3134 3136 3137 3138 3140 3141 3144 3146 3147 3149 3152 3153 3156 3157 3158 3159 3160 3162 3163 3164 3164 3165 3166 3166 3166 3166 3166 3166 3166 3166 3166 3166 3165 3164 3164 3163 3162 3161 3160 3161 3162 3161 3159 3157 3157 3156 3156 3155 3153 3152 3151 3150 3148 3146 3145 3143 3142 3140 3138 3137 3135
3079 3082 3085 3088 3091 3094 3097 3099 3101 3104 3106 3108 3110 3111 3113 3115 3117 3120 3122 3124 3126 3127 3128 3130 3133 3134 3135 3136 3137 3139 3143 3145 3146 3148 3150 3151 3153 3155 3156 3157 3158 3159 3161 3161 3162 3163 3163 3164 3164 3164 3164 3164 3164 3164 3164 3163 3162 3162 3162 3161 3160 3159 3158 3158 3159 3159 3158 3156 3155 3155 3154 3153 3152 3150 3149 3147 3146 3144 3143 3141 3139 3138 3136 3134 3133
3076 3080 3083 3086 3089 3092 3094 3097 3098 3100 3103 3105 3106 3108 3111 3113 3115 3117 3119 3120 3122 3123 3126 3129 3130 3130 3132 3134 3135 3137 3140 3141 3143 3146 3147 3149 3151 3152 3153 3155 3156 3157 3158 3159 3160 3160 3161 3162 3162 3162 3161 3161 3162 3162 3162 3161 3160 3160 3159 3159 3158 3157 3156 3156 3156 3156 3156 3155 3153 3153 3152 3151 3150 3148 3147 3145 3144 3142 3140 3139 3137 3136 3134 3132 3130
3074 3078 3082 3084 3086 3088 3091 3093 3095 3097 3100 3101 3103 3105 3108 3110 3111 3113 3115 3116 3118 3121 3124 3125 3126 3128 3130 3131 3132 3135 3136 3137 3139 3142 3144 3145 3147 3148 3150 3152 3153 3154 3155 3156 3157 3158 3159 3159 3159 3159 3159 3159 3159 3160 3159 3158 3158 3157 3157 3156 3155 3155 3154 3154 3154 3154 3154 3153 3152 3151 3150 3149 3148 3146 3145 3143 3141 3139 3138 3136 3135 3133 3131 3129 3127
3072 3075 3078 3081 3083 3086 3089 3091 3092 3095 3097 3099 3100 3102 3104 3106 3108 3110 3112 3114 3116 3118 3120 3122 3124 3125 3126 3127 3129 3131 3133 3134 3136 3138 3140 3141 3143 3144 3146 3148 3150 3151 3153 3153 3154 3155 3156 3157 3157 3156 3156 3156 3157 3157 3157 3156 3156 3155 3154 3153 3153 3152 3152 3152 3152 3152 3151 3151 3150 3149 3148 3147 3146 3144 3142 3140 3139 3137 3135 3134 3132 3130 3128 3126 3124
3069 3072 3074 3078 3080 3083 3086 3088 3090 3093 3094 3096 3098 3099 3101 3103 3105 3107 3109 3111 3113 3114 3116 3119 3121 3121 3122 3123 3125 3127 3129 3132 3134 3136 3137 3139 3140 3142 3144 3145 3147 3149 3150 3151 3152 3152 3153 3154 3154 3153 3153 3154 3154 3155 3154 3154 3153 3152 3151 3151 3151 3150 3150 3150 3150 3150 3149 3149 3148 3147 3146 3144 3143 3142 3140 3138 3136 3135 3133 3131 3129 3127 3125 3123 3121
3065 3069 3072 3075 3078 3081 3084 3086 3088 3090 3091 3093 3094 3096 3098 3100 3102 3104 3106 3107 3109 3110 3112 3115 3116 3117 3118 3120 3122 3124 3127 3129 3132 3134 3136 3137 3139 3141 3142 3143 3144 3146 3147 3147 3148 3149 3150 3151 3151 3151 3151 3151 3152 3152 3152 3152 3151 3150 3149 3149 3148 3148 3147 3147 3147 3147 3147 3147 3146 3145 3143 3142 3141 3139 3137 3135 3134 3132 3130 3128 3126 3124 3122 3120 3119
3062 3065 3069 3072 3074 3077 3080 3083 3085 3086 3088 3089 3091 3093 3094 3096 3098 3100 3101 3103 3105 3106 3108 3111 3113 3113 3115 3118 3120 3122 3123 3126 3128 3130 3132 3134 3136 3138 3139 3140 3141 3142 3143 3144 3144 3146 3147 3148 3149 3149 3148 3148 3149 3149 3149 3149 3148 3147 3147 3147 3146 3146 3145 3145 3145 3144 3144 3144 3143 3142 3141 3140 3138 3137 3135 3133 3131 3129 3127 3125 3123 3121 3120 3118 3117
3058 3061 3064 3067 3070 3071 3074 3077 3080 3083 3084 3086 3088 3089 3090 3092 3094 3096 3098 3100 3101 3103 3105 3108 3110 3111 3113 3115 3117 3118 3120 3122 3124 3125 3127 3129 3131 3133 3134 3135 3136 3138 3139 3140 3141 3142 3144 3145 3146 3146 3145 3145 3145 3146 3146 3146 3145 3144 3144 3144 3144 3143 3143 3143 3142 3142 3142 3140 3139 3138 3137 3136 3135 3134 3132 3130 3128 3126 3124 3122 3121 3119 3118 3116 3115
3051 3055 3058 3061 3064 3067 3069 3072 3075 3078 3080 3082 3084 3086 3087 3088 3089 3092 3094 3096 3098 3099 3101 3104 3106 3108 3110 3111 3113 3116 3117 3119 3121 3122 3123 3125 3127 3128 3129 3131 3132 3134 3136 3137 3138 3139 3140 3142 3143 3143 3142 3142 3142 3143 3143 3143 3142 3142 3142 3142 3141 3141 3141 3140 3140 3140 3139 3138 3137 3135 3134 3133 3131 3130 3128 3127 3125 3123 3122 3120 3118 3117 3115 3114 3112
3048 3051 3053 3056 3059 3062 3065 3067 3069 3072 3074 3076 3079 3081 3084 3085 3086 3088 3090 3092 3094 3095 3096 3099 3101 3103 3106 3108 3110 3112 3114 3115 3117 3118 3120 3122 3123 3124 3126 3127 3129 3131 3133 3134 3135 3136 3137 3138 3139 3139 3139 3139 3139 3139 3140 3140 3139 3139 3139 3139 3139 3139 3138 3138 3138 3137 3136 3135 3134 3133 3131 3130 3128 3126 3125 3123 3122 3120 3119 3118 3116 3114 3113 3112 3110
3046 3048 3050 3052 3054 3056 3058 3061 3063 3066 3068 3070 3073 3075 3078 3079 3081 3082 3084 3087 3089 3090 3092 3094 3097 3100 3102 3104 3106 3108 3110 3112 3113 3115 3116 3118 3119 3121 3123 3125 3127 3129 3130 3131 3132 3133 3134 3135 3135 3136 3135 3135 3135 3136 3137 3137 3136 3136 3137 3136 3136 3136 3136 3136 3135 3135 3134 3132 3131 3130 3129 3127 3125 3124 3122 3121 3119 3118 3116 3115 3114 3112 3111 3110 3108
3043 3045 3046 3048 3050 3051 3053 3055 3058 3060 3062 3064 3067 3069 3071 3073 3074 3076 3078 3081 3083 3086 3088 3090 3093 3096 3098 3100 3102 3104 3106 3107 3109 3111 3112 3113 3115 3117 3120 3122 3124 3125 3126 3128 3129 3130 3130 3131 3131 3132 3132 3131 3132 3133 3134 3134 3133 3133 3134 3134 3134 3134 3134 3134 3133 3132 3131 3130 3128 3127 3126 3124 3123 3121 3120 3118 3117 3115 3114 3113 3111 3110 3109 3108 3106
3038 3040 3042 3044 3046 3047 3048 3050 3052 3054 3056 3057 3060 3063 3065 3066 3068 3070 3072 3075 3078 3080 3083 3085 3089 3092 3094 3096 3098 3099 3101 3103 3105 3107 3108 3110 3111 3114 3117 3119 3120 3121 3123 3125 3126 3126 3126 3127 3128 3128 3128 3128 3128 3129 3130 3131 3131 3130 3131 3131 3131 3131 3131 3131 3130 3129 3128 3127 3126 3124 3123 3122 3120 3119 3117 3116 3115 3113 3112 3111 3109 3108 3107 3106 3104
3033 3035 3037 3038 3040 3041 3043 3045 3047 3048 3049 3051 3053 3056 3058 3060 3062 3064 3067 3069 3072 3075 3078 3080 3083 3086 3089 3091 3093 3095 3097 3099 3101 3102 3104 3106 3108 3110 3113 3115 3116 3118 3120 3121 3121 3122 3122 3123 3124 3124 3125 3125 3125 3126 3128 3128 3127 3127 3128 3129 3129 3129 3129 3128 3128 3127 3126 3124 3123 3122 3121 3119 3118 3117 3116 3114 3113 3112 3110 3109 3107 3106 3105 3103 3102
3028 3030 3032 3033 3035 3036 3038 3041 3042 3042 3044 3045 3047 3049 3051 3053 3056 3058 3061 3064 3066 3069 3073 3075 3078 3080 3083 3087 3089 3091 3093 3095 3097 3099 3100 3102 3104 3107 3109 3110 3112 3114 3116 3116 3117 3118 3118 3119 3120 3121 3121 3122 3122 3123 3125 3125 3124 3124 3125 3126 3126 3126 3126 3126 3125 3124 3123 3122 3121 3120 3119 3118 3117 3115 3114 3112 3111 3110 3108 3107 3105 3104 3103 3101 3099
3024 3026 3027 3028 3030 3031 3033 3035 3037 3038 3039 3040 3041 3044 3045 3047 3050 3052 3055 3058 3060 3063 3066 3068 3071 3073 3077 3081 3084 3086 3089 3090 3092 3094 3096 3098 3100 3101 3103 3105 3108 3109 3111 3112 3113 3114 3114 3115 3116 3117 3118 3118 3118 3119 3121 3121 3121 3121 3122 3123 3123 3123 3123 3123 3122 3121 3120 3119 3118 3118 3117 3116 3115 3113 3112 3111 3109 3107 3106 3105 3103 3102 3100 3099 3097
3020 3021 3022 3024 3025 3026 3027 3029 3031 3033 3034 3035 3036 3038 3040 3042 3044 3046 3048 3051 3054 3056 3058 3061 3063 3067 3071 3075 3078 3081 3084 3086 3088 3089 3091 3094 3095 3097 3098 3101 3103 3105 3106 3107 3109 3110 3110 3111 3112 3113 3114 3115 3115 3116 3117 3117 3117 3118 3119 3119 3120 3120 3120 3120 3119 3118 3117 3116 3116 3115 3115 3114 3113 3112 3110 3109 3107 3105 3104 3103 3101 3100 3098 3096 3094
3014 3015 3017 3018 3019 3020 3022 3023 3025 3026 3028 3030 3031 3032 3034 3036 3039 3042 3044 3045 3047 3049 3051 3054 3057 3061 3064 3068 3072 3075 3078 3080 3082 3084 3086 3088 3090 3092 3094 3096 3098 3100 3102 3103 3104 3106 3106 3107 3109 3110 3110 3111 3111 3112 3113 3114 3114 3115 3116 3116 3116 3117 3117 3116 3116 3115 3114 3114 3114 3113 3113 3112 3111 3109 3108 3107 3105 3103 3102 3100 3099 3097 3095 3094 3091
3007 3009 3010 3012 3013 3014 3015 3017 3019 3020 3022 3024 3026 3028 3029 3031 3033 3037 3040 3041 3042 3044 3046 3049 3052 3056 3059 3062 3066 3069 3071 3074 3076 3078 3080 3082 3085 3087 3088 3090 3093 3096 3098 3099 3101 3102 3103 3104 3105 3106 3107 3107 3107 3109 3110 3111 3111 3112 3112 3113 3113 3114 3114 3113 3112 3112 3112 3112 3112 3111 3111 3109 3108 3107 3106 3104 3103 3101 3099 3098 3096 3095 3093 3091 3088
3001 3003 3003 3004 3005 3007 3008 3011 3013 3015 3017 3018 3020 3023 3026 3026 3028 3031 3035 3037 3038 3040 3042 3045 3048 3051 3054 3057 3060 3063 3065 3066 3069 3072 3074 3076 3079 3081 3083 3085 3089 3091 3093 3095 3097 3098 3099 3100 3101 3102 3103 3103 3104 3106 3107 3108 3108 3109 3110 3110 3110 3110 3110 3110 3109 3110 3110 3110 3110 3109 3108 3107 3105 3104 3103 3102 3101 3099 3097 3095 3094 3092 3090 3088 3085
2993 2995 2996 2997 2998 2999 3002 3004 3006 3009 3011 3012 3014 3017 3020 3021 3022 3025 3028 3031 3033 3035 3037 3040 3043 3046 3048 3051 3054 3056 3058 3059 3062 3066 3069 3071 3074 3075 3078 3081 3084 3086 3089 3091 3093 3094 3095 3097 3097 3098 3099 3100 3101 3103 3104 3105 3105 3106 3107 3107 3107 3107 3107 3107 3107 3107 3107 3107 3107 3107 3105 3104 3103 3102 3101 3100 3099 3097 3094 3093 3091 3089 3087 3085 3082
2984 2986 2987 2989 2991 2992 2995 2996 2999 3001 3003 3005 3007 3010 3012 3014 3017 3019 3022 3024 3027 3029 3031 3034 3037 3039 3042 3045 3048 3050 3052 3053 3057 3061 3063 3065 3067 3070 3073 3077 3079 3081 3084 3086 3088 3090 3091 3093 3093 3094 3095 3096 3097 3099 3100 3101 3102 3103 3104 3104 3104 3104 3103 3103 3104 3104 3105 3105 3105 3104 3103 3101 3100 3100 3099 3098 3096 3094 3091 3089 3088 3085 3083 3082 3079
2975 2977 2979 2981 2983 2984 2986 2988 2991 2993 2995 2997 3000 3002 3005 3007 3010 3013 3016 3018 3021 3023 3026 3028 3030 3033 3036 3038 3041 3044 3047 3049 3053 3055 3057 3059 3061 3063 3067 3071 3074 3076 3079 3081 3083 3085 3087 3088 3090 3090 3092 3093 3094 3095 3097 3098 3099 3100 3100 3101 3101 3101 3100 3100 3101 3101 3102 3102 3102 3101 3100 3099 3098 3097 3097 3095 3093 3091 3088 3086 3084 3082 3080 3078 3076
2967 2968 2970 2972 2973 2975 2977 2980 2982 2985 2987 2989 2992 2995 2997 3000 3002 3006 3009 3012 3015 3018 3020 3023 3025 3027 3030 3033 3036 3039 3042 3046 3049 3050 3051 3052 3054 3057 3061 3066 3069 3071 3074 3077 3078 3081 3083 3084 3086 3087 3089 3090 3091 3093 3094 3095 3096 3096 3097 3097 3098 3098 3098 3098 3098 3098 3099 3099 3098 3098 3097 3096 3095 3094 3094 3092 3090 3087 3085 3083 3081 3079 3077 3075 3073
2959 2960 2961 2963 2964 2966 2969 2972 2974 2976 2978 2981 2984 2988 2990 2993 2996 2999 3003 3006 3009 3012 3014 3017 3019 3021 3024 3027 3030 3034 3038 3042 3043 3044 3046 3047 3049 3052 3056 3060 3064 3066 3070 3072 3074 3077 3079 3081 3082 3084 3086 3088 3089 3090 3091 3091 3092 3093 3094 3094 3094 3095 3095 3095 3096 3096 3095 3095 3095 3095 3095 3094 3093 3091 3090 3088 3086 3084 3082 3080 3078 3076 3074 3072 3070
2952 2952 2953 2954 2956 2958 2960 2963 2966 2968 2970 2974 2978 2981 2983 2986 2989 2992 2995 2999 3003 3006 3008 3011 3014 3016 3019 3022 3025 3028 3033 3036 3037 3039 3041 3043 3045 3048 3051 3055 3058 3062 3065 3068 3070 3073 3075 3077 3078 3080 3083 3085 3085 3086 3087 3088 3089 3090 3090 3091 3091 3092 3092 3092 3093 3092 3092 3092 3092 3092 3092 3091 3089 3088 3086 3084 3082 3080 3079 3077 3075 3073 3070 3069 3067
2945 2945 2946 2947 2949 2950 2952 2955 2958 2961 2964 2968 2971 2974 2977 2979 2982 2985 2988 2991 2995 2999 3002 3005 3009 3011 3013 3016 3019 3023 3027 3031 3033 3034 3036 3039 3041 3044 3047 3050 3054 3058 3061 3063 3066 3069 3072 3073 3075 3077 3080 3081 3081 3082 3083 3084 3086 3086 3087 3088 3088 3089 3089 3089 3089 3089 3089 3089 3089 3089 3088 3087 3085 3084 3082 3080 3079 3077 3075 3074 3072 3069 3067 3065 3064
2938 2938 2939 2940 2941 2942 2944 2947 2951 2954 2957 2961 2964 2968 2971 2973 2976 2978 2981 2983 2987 2992 2995 2999 3003 3005 3007 3010 3013 3017 3022 3025 3027 3029 3032 3034 3037 3040 3043 3046 3050 3053 3057 3060 3063 3065 3067 3069 3071 3074 3076 3077 3078 3079 3080 3081 3082 3083 3084 3085 3085 3086 3086 3086 3086 3085 3085 3086 3085 3085 3085 3084 3082 3080 3078 3076 3075 3073 3072 3070 3068 3066 3064 3063 3061
2931 2931 2932 2933 2934 2935 2936 2939 2943 2947 2950 2953 2957 2961 2964 2967 2969 2971 2974 2976 2980 2984 2988 2993 2997 3000 3001 3003 3007 3011 3016 3019 3022 3025 3027 3029 3032 3036 3039 3042 3046 3049 3053 3056 3059 3061 3062 3065 3067 3070 3072 3073 3074 3075 3076 3078 3079 3080 3081 3081 3082 3082 3083 3083 3083 3082 3082 3082 3082 3082 3082 3080 3078 3076 3074 3073 3071 3070 3069 3067 3064 3063 3062 3060 3059
2924 2923 2924 2925 2927 2928 2930 2932 2936 2940 2943 2947 2950 2953 2957 2960 2962 2965 2967 2969 2972 2977 2981 2986 2991 2993 2995 2998 3002 3005 3010 3013 3017 3021 3023 3026 3028 3032 3035 3038 3042 3046 3050 3053 3055 3057 3059 3062 3064 3066 3067 3068 3069 3070 3072 3075 3076 3077 3077 3078 3078 3079 3079 3079 3079 3080 3079 3079 3079 3078 3078 3076 3074 3072 3071 3069 3068 3066 3065 3063 3061 3060 3059 3058 3056
2916 2915 2914 2916 2919 2920 2922 2925 2929 2933 2937 2942 2944 2947 2950 2953 2956 2959 2962 2963 2965 2969 2973 2978 2983 2986 2989 2993 2996 2999 3003 3007 3010 3015 3020 3022 3024 3027 3030 3034 3038 3042 3046 3049 3050 3052 3055 3058 3060 3062 3063 3064 3065 3067 3069 3071 3072 3073 3074 3075 3075 3075 3075 3076 3076 3076 3076 3076 3076 3075 3074 3073 3071 3069 3067 3066 3065 3063 3061 3060 3059 3058 3057 3056 3054
2909 2907 2907 2908 2911 2913 2915 2919 2923 2927 2931 2936 2940 2942 2944 2947 2950 2953 2956 2958 2960 2963 2967 2972 2976 2979 2983 2987 2990 2993 2997 3000 3004 3009 3015 3017 3019 3022 3025 3030 3034 3038 3041 3043 3045 3047 3050 3053 3055 3057 3058 3060 3062 3063 3065 3067 3069 3070 3070 3071 3072 3072 3072 3072 3073 3073 3073 3073 3072 3071 3070 3069 3067 3066 3064 3063 3062 3060 3058 3057 3056 3056 3055 3053 3051
2902 2901 2900 2901 2904 2906 2910 2914 2918 2922 2926 2931 2935 2937 2940 2942 2945 2948 2951 2953 2955 2959 2962 2966 2970 2973 2978 2981 2984 2987 2991 2994 2999 3004 3009 3012 3014 3018 3022 3026 3030 3033 3036 3038 3040 3043 3045 3048 3050 3052 3054 3057 3058 3060 3062 3064 3065 3066 3067 3068 3068 3068 3069 3069 3069 3069 3070 3070 3069 3067 3067 3066 3064 3062 3061 3060 3059 3057 3055 3054 3054 3054 3052 3051 3048
2897 2896 2896 2897 2899 2902 2905 2909 2914 2917 2922 2927 2930 2932 2936 2938 2939 2943 2947 2948 2951 2955 2958 2961 2965 2968 2971 2975 2978 2982 2985 2989 2993 2998 3003 3007 3010 3014 3019 3023 3026 3029 3032 3034 3037 3039 3042 3044 3047 3049 3051 3053 3055 3056 3058 3060 3061 3063 3064 3064 3064 3065 3065 3065 3066 3066 3067 3066 3064 3063 3063 3062 3060 3059 3058 3057 3056 3054 3052 3052 3052 3051 3050 3047 3044